Iowa City, IA

12:26 AM CDT on September 30, 2016 (GMT -0500)
Iowa City Municipal

Weather History for KIOW - January, 2013

Change the Weather History Date:

Wednesday, January 23, 2013

  Actual Average Record
Temperature  
Mean Temperature 20 °F 22 °F  
Max Temperature 30 °F 30 °F 54 °F (1981)
Min Temperature 9 °F 14 °F -21 °F (1963)
Degree Days  
Heating Degree Days 45 43  
Month to date heating degree days 933 989  
Since 1 July heating degree days 3305 3528  
Cooling Degree Days 0 0  
Month to date cooling degree days 0 0  
Year to date cooling degree days 0 0  
Moisture  
Dew Point 5 °F    
Average Humidity 57    
Maximum Humidity 67    
Minimum Humidity 46    
Precipitation  
Precipitation 0.00 in 0.04 in 1.12 in (1969)
Month to date precipitation 0.17 0.53  
Year to date precipitation 0.17 0.53  
Sea Level Pressure  
Sea Level Pressure 30.31 in    
Wind  
Wind Speed 12 mph (West)    
Max Wind Speed 28 mph    
Max Gust Speed 38 mph    
Visibility 10 miles    
Events      
T = Trace of Precipitation, MM = Missing Value Source: NWS Daily Summary

Daily Weather History Graph

Daily Weather History Graph

Search for Another Location

Airport or City:

Trip Planner

Search our weather history database for the weather conditions in past years. The results will help you decide how hot, cold, wet, or windy it might be!

Date:

Astronomy

Jan. 23, 2013 Rise Set
Actual Time 7:25 AM CST 5:10 PM CST
Civil Twilight 6:55 AM CST 5:40 PM CST
Nautical Twilight 6:21 AM CST 6:14 PM CST
Astronomical Twilight 5:49 AM CST 6:47 PM CST
Moon 2:20 PM CST (1/23) 4:38 AM CST (1/23)
Length of Visible Light 10h 45m
Length of Day
9h 45m
Waxing Gibbous, 89% of the Moon is Illuminated
Jan 23
Waxing Gibbous
Jan 26
Full
Feb 3
Last Quarter
Feb 10
New
Feb 17
First Quarter

Hourly Weather History & Observations

Time (CST) Temp. Windchill Dew Point Humidity Pressure Visibility Wind Dir Wind Speed Gust Speed Precip Events Conditions
12:52 AM 12.9 °F 5.2 °F -0.0 °F 56% 30.37 in 10.0 mi SW 4.6 mph - N/A   Overcast
1:52 AM 12.9 °F 6.9 °F 1.0 °F 59% 30.36 in 10.0 mi SSW 3.5 mph - N/A   Overcast
2:52 AM 12.9 °F 6.9 °F 1.9 °F 62% 30.35 in 10.0 mi SSE 3.5 mph - N/A   Overcast
3:52 AM 14.0 °F 6.5 °F 1.9 °F 59% 30.32 in 10.0 mi SSE 4.6 mph - N/A   Overcast
4:52 AM 14.0 °F 5.1 °F 3.0 °F 62% 30.30 in 10.0 mi SSE 5.8 mph - N/A   Overcast
5:52 AM 15.1 °F 5.2 °F 3.9 °F 61% 30.30 in 10.0 mi South 6.9 mph - N/A   Overcast
6:52 AM 16.0 °F 6.3 °F 5.0 °F 62% 30.29 in 10.0 mi South 6.9 mph - N/A   Overcast
7:52 AM 16.0 °F 6.3 °F 6.1 °F 65% 30.28 in 10.0 mi South 6.9 mph - N/A   Overcast
8:52 AM 17.1 °F 7.6 °F 6.1 °F 62% 30.27 in 10.0 mi SSW 6.9 mph - N/A   Overcast
9:52 AM 19.0 °F 6.8 °F 6.1 °F 57% 30.25 in 10.0 mi SSW 11.5 mph - N/A   Overcast
10:52 AM 23.0 °F 13.9 °F 7.0 °F 50% 30.24 in 10.0 mi SSW 8.1 mph - N/A   Clear
11:52 AM 26.1 °F 14.5 °F 9.0 °F 49% 30.22 in 10.0 mi West 13.8 mph - N/A   Clear
12:52 PM 26.1 °F 15.0 °F 10.0 °F 51% 30.20 in 10.0 mi WNW 12.7 mph 19.6 mph N/A   Clear
1:52 PM 28.0 °F 17.5 °F 10.9 °F 49% 30.19 in 10.0 mi NW 12.7 mph - N/A   Clear
2:52 PM 28.9 °F 17.7 °F 12.0 °F 49% 30.19 in 10.0 mi WNW 15.0 mph - N/A   Clear
3:52 PM 28.9 °F 18.6 °F 12.0 °F 49% 30.22 in 10.0 mi NW 12.7 mph 26.5 mph N/A   Clear
4:52 PM 26.1 °F 14.0 °F 10.9 °F 53% 30.25 in 10.0 mi WNW 15.0 mph 21.9 mph N/A   Clear
5:52 PM 23.0 °F 8.7 °F 9.0 °F 55% 30.28 in 10.0 mi NW 18.4 mph 27.6 mph N/A   Clear
6:52 PM 19.9 °F 3.9 °F 5.0 °F 52% 30.33 in 10.0 mi NW 20.7 mph 32.2 mph N/A   Clear
7:52 PM 17.1 °F 1.0 °F 1.0 °F 50% 30.36 in 10.0 mi NW 18.4 mph 31.1 mph N/A   Clear
8:52 PM 12.9 °F -5.7 °F -0.0 °F 56% 30.40 in 10.0 mi NNW 21.9 mph 29.9 mph N/A   Clear
9:52 PM 12.0 °F -4.0 °F -0.9 °F 56% 30.44 in 10.0 mi North 15.0 mph 21.9 mph N/A   Clear
10:52 PM 10.9 °F -6.5 °F -2.0 °F 56% 30.47 in 10.0 mi North 17.3 mph 24.2 mph N/A   Clear
11:52 PM 10.0 °F -5.9 °F -4.0 °F 53% 30.53 in 10.0 mi North 13.8 mph - N/A   Clear